Regional Weather Roundup
Issued by NWS Goodland, KS

Home | Current Version | Previous Version | Graphics & Text | Print | Product List | Glossary On
Versions: 1 2 3 4 5 6 7 8 9 10 11 12 13 14 15 16 17 18 19 20 21 22 23 24 25 26 27 28 29 30 31 32 33 34 35 36 37 38 39 40 41 42 43 44 45 46 47 48 49 50
000
ASUS43 KGLD 192208
RWRGLD

GOODLAND FORECAST AREA HOURLY WEATHER ROUNDUP
NATIONAL WEATHER SERVICE GOODLAND KS
400 PM MDT SUN APR 19 2015

...OFFICIAL OBSERVATIONS...

CITY           SKY/WX    TMP DP  RH WIND       PRES   REMARKS
GOODLAND KS    PTSUNNY   50  25  37 N22G35    29.98F
HILL CITY KS   CLOUDY    56  27  32 N25G32    29.91F
IMPERIAL NEB   CLOUDY    50  23  34 N24       29.97F
MCCOOK NEB     CLOUDY    56  24  29 N29G36    29.93F
AKRON CO       CLOUDY    46  21  37 NW23G35   30.02F
BURLINGTON CO  PTSUNNY   49  24  37 N26G33    30.00F
LIMON CO       MOSUNNY   49  24  37 N25G37    30.02F
$$

...UNOFFICIAL OBSERVATIONS...

CITY           SKY/WX    TMP DP  RH WIND       PRES   REMARKS
COLBY KS       CLOUDY    52  28  40 NW20G30   29.96F
GOVE KS          N/A     54  32  43 MISG        N/A
LENORA KS        N/A     54  32  43 MISG        N/A
NORTON KS      CLOUDY    54  25  32 N28       29.89F
SHARON SPRINGS   N/A     50  30  46 MISG        N/A
TRIBUNE KS     PTSUNNY   54  34  47 N30G40    30.01S
KIT CARSON CO    N/A     50  30  46 MISG        N/A
YUMA CO          N/A     49  23  35 NW21G32     N/A
$$



USA.gov is the U.S. government's official web portal to all federal, state and local government web resources and services.